Date String (YYYY-MM-DD hh:mm:ss) UTC,Instrument flags,absolute air pressure of the measurement (hPa),sample flow rate (lpm),inlet stack bypass flow (lpm),air temperature of the measurement (°C),ambient temperature measured by the external sensor (°C),aerosol sample conditioner tube jacket temperature (°C),OPC LED temperature (°C),internal box temperature (°C),relative humidity of the measurement (%),span deviation,mass concentration of particles derived from Lorenz-Mie calculation of OPC scattering (μg/m³),mass concentration of particles derived from Lorenz-Mie calculation of OPC scattering (μg/m³),mass concentration of particles derived from Lorenz-Mie calculation of OPC scattering (μg/m³)
DateTimeUTC,F1_M11,P_M11,Q1_M11,Q2_M11,T1_M11,T2_M11,T3_M11,T4_M11,T5_M11,U1_M11,ZSPAN_M11,X2_M11,X0_M11,X1_M11
2024-03-14 04:00:00,SystemResetWarning,0822.7,5.00,000.00,020.4,019.6,000.0,029.0,022.2,26.3,0000.0,0002.09,0002.74,0001.78
2024-03-14 04:01:00,SystemResetWarning,0822.7,5.01,000.00,020.4,019.6,000.0,029.0,022.2,26.2,0000.0,0002.02,0002.72,0001.68
2024-03-14 04:02:00,SystemResetWarning,0823.1,5.00,000.00,020.4,019.5,000.0,029.0,022.2,26.1,0000.0,0001.96,0002.64,0001.60
2024-03-14 04:03:00,SystemResetWarning,0823.3,5.00,000.00,020.4,019.5,000.0,029.0,022.2,26.0,0000.0,0001.87,0002.52,0001.53
2024-03-14 04:04:00,SystemResetWarning,0823.0,5.00,000.00,020.4,019.5,000.0,029.0,022.2,26.1,0000.0,0001.77,0002.46,0001.42
2024-03-14 04:05:00,SystemResetWarning,0823.2,5.00,000.00,020.3,019.5,000.0,028.9,022.1,26.1,0000.0,0001.67,0002.29,0001.34
2024-03-14 04:06:00,SystemResetWarning,0823.1,4.99,000.00,020.3,019.5,000.0,028.9,022.1,26.2,0000.0,0001.63,0002.25,0001.31
2024-03-14 04:07:00,SystemResetWarning,0822.9,4.99,000.00,020.3,019.5,000.0,028.9,022.1,26.1,0000.0,0001.64,0002.31,0001.29
2024-03-14 04:08:00,SystemResetWarning,0822.9,5.00,000.00,020.3,019.5,000.0,028.9,022.1,26.0,0000.0,0001.62,0002.31,0001.26
2024-03-14 04:09:00,SystemResetWarning,0823.0,5.00,000.00,020.3,019.5,000.0,028.9,022.1,25.8,0000.0,0001.59,0002.26,0001.24
2024-03-14 04:10:00,SystemResetWarning,0822.9,5.01,000.00,020.3,019.5,000.0,028.9,022.1,25.7,0000.0,0001.54,0002.21,0001.21
2024-03-14 04:11:00,SystemResetWarning,0823.2,5.00,000.00,020.3,019.5,000.0,028.9,022.1,25.5,0000.0,0001.51,0002.18,0001.17
2024-03-14 04:12:00,SystemResetWarning,0822.9,5.00,000.00,020.3,019.5,000.0,028.9,022.1,25.4,0000.0,0001.45,0002.10,0001.14
2024-03-14 04:13:00,SystemResetWarning,0822.9,4.99,000.00,020.3,019.5,000.0,028.9,022.1,25.3,0000.0,0001.40,0002.11,0001.11
2024-03-14 04:14:00,SystemResetWarning,0822.9,4.99,000.00,020.3,019.5,000.0,028.9,022.1,25.3,0000.0,0001.41,0002.19,0001.10
2024-03-14 04:15:00,SystemResetWarning,0822.9,4.99,000.00,020.3,019.5,000.0,028.9,022.1,25.2,0000.0,0001.39,0002.18,0001.08
2024-03-14 04:16:00,SystemResetWarning,0822.9,5.00,000.00,020.3,019.5,000.0,028.9,022.1,25.1,0000.0,0001.39,0002.20,0001.05
2024-03-14 04:17:00,SystemResetWarning,0823.0,5.00,000.00,020.3,019.5,000.0,028.9,022.1,25.1,0000.0,0001.39,0002.27,0001.03
2024-03-14 04:18:00,SystemResetWarning,0823.1,5.00,000.00,020.3,019.5,000.0,028.9,022.1,25.0,0000.0,0001.37,0002.24,0001.00
2024-03-14 04:19:00,SystemResetWarning,0823.1,5.01,000.00,020.3,019.5,000.0,028.8,022.1,24.9,0000.0,0001.35,0002.21,0000.97
2024-03-14 04:20:00,SystemResetWarning,0822.9,5.00,000.00,020.3,019.5,000.0,028.8,022.1,24.9,0000.0,0001.30,0002.13,0000.96
2024-03-14 04:21:00,SystemResetWarning,0822.9,5.00,000.00,020.3,019.5,000.0,028.8,022.1,24.8,0000.0,0001.34,0002.18,0000.99
2024-03-14 04:22:00,SystemResetWarning,0822.9,4.99,000.00,020.3,019.5,000.0,028.8,022.1,24.8,0000.0,0001.40,0002.33,0001.04
2024-03-14 04:23:00,SystemResetWarning,0823.0,4.99,000.00,020.2,019.5,000.0,028.8,022.1,24.7,0000.0,0001.50,0002.49,0001.10
2024-03-14 04:24:00,SystemResetWarning,0823.0,5.00,000.00,020.2,019.5,000.0,028.8,022.1,24.7,0000.0,0001.59,0002.60,0001.17
2024-03-14 04:25:00,SystemResetWarning,0823.1,5.01,000.00,020.2,019.5,000.0,028.8,022.0,24.6,0000.0,0001.70,0002.71,0001.25
2024-03-14 04:26:00,SystemResetWarning,0823.0,5.01,000.00,020.2,019.5,000.0,028.8,022.0,24.6,0000.0,0001.82,0002.95,0001.33
2024-03-14 04:27:00,SystemResetWarning,0823.0,5.01,000.00,020.2,019.5,000.0,028.8,022.0,24.6,0000.0,0001.90,0003.13,0001.40
2024-03-14 04:28:00,SystemResetWarning,0823.0,4.99,000.00,020.2,019.5,000.0,028.8,022.0,24.5,0000.0,0001.95,0003.17,0001.46
2024-03-14 04:29:00,SystemResetWarning,0823.0,4.99,000.00,020.2,019.5,000.0,028.8,022.0,24.5,0000.0,0002.00,0003.22,0001.52
2024-03-14 04:30:00,SystemResetWarning,0823.0,5.00,000.00,020.2,019.5,000.0,028.8,022.0,24.5,0000.0,0002.06,0003.24,0001.59
2024-03-14 04:31:00,SystemResetWarning,0823.0,5.00,000.00,020.2,019.5,000.0,028.8,022.0,24.5,0000.0,0002.12,0003.31,0001.66
2024-03-14 04:32:00,SystemResetWarning,0823.0,5.01,000.00,020.2,019.5,000.0,028.8,022.0,24.6,0000.0,0002.17,0003.38,0001.70
2024-03-14 04:33:00,SystemResetWarning,0823.0,5.01,000.00,020.2,019.5,000.0,028.8,022.0,24.6,0000.0,0002.18,0003.33,0001.71
2024-03-14 04:34:00,SystemResetWarning,0823.0,5.01,000.00,020.2,019.4,000.0,028.8,022.0,24.6,0000.0,0002.21,0003.32,0001.75
2024-03-14 04:35:00,SystemResetWarning,0823.0,5.00,000.00,020.2,019.4,000.0,028.8,022.0,24.6,0000.0,0002.18,0003.21,0001.75
2024-03-14 04:36:00,SystemResetWarning,0823.0,4.98,000.00,020.2,019.4,000.0,028.8,022.0,24.6,0000.0,0002.14,0003.10,0001.75
2024-03-14 04:37:00,SystemResetWarning,0823.0,5.00,000.00,020.2,019.4,000.0,028.8,022.0,24.6,0000.0,0002.08,0002.92,0001.74
2024-03-14 04:38:00,SystemResetWarning,0823.0,5.01,000.00,020.2,019.4,000.0,028.8,022.0,24.6,0000.0,0002.05,0002.74,0001.74
2024-03-14 04:39:00,SystemResetWarning,0823.0,5.00,000.00,020.2,019.4,000.0,028.8,021.9,24.6,0000.0,0002.07,0002.75,0001.75
2024-03-14 04:40:00,SystemResetWarning,0823.0,4.99,000.00,020.2,019.4,000.0,028.8,021.9,24.6,0000.0,0002.06,0002.72,0001.74
2024-03-14 04:41:00,SystemResetWarning,0823.0,4.99,000.00,020.1,019.3,000.0,028.8,021.9,24.6,0000.0,0002.06,0002.72,0001.72
2024-03-14 04:42:00,SystemResetWarning,0823.0,5.02,000.00,020.1,019.3,000.0,028.8,021.9,24.6,0000.0,0002.04,0002.70,0001.69
2024-03-14 04:43:00,SystemResetWarning,0823.0,5.01,000.00,020.1,019.3,000.0,028.7,021.9,25.5,0000.0,0002.00,0002.65,0001.65
2024-03-14 04:44:00,SystemResetWarning,0823.0,5.00,000.00,020.1,019.3,000.0,028.7,021.9,26.1,0000.0,0001.95,0002.58,0001.60
2024-03-14 04:45:00,SystemResetWarning,0823.0,5.00,000.00,020.1,019.3,000.0,028.7,021.9,25.2,0000.0,0001.84,0002.46,0001.52
2024-03-14 04:46:00,SystemResetWarning,0823.1,4.99,000.00,020.1,019.3,000.0,028.7,021.9,24.9,0000.0,0001.78,0002.41,0001.45
2024-03-14 04:47:00,SystemResetWarning,0823.1,4.99,000.00,020.1,019.3,000.0,028.7,021.9,24.9,0000.0,0001.71,0002.32,0001.39
2024-03-14 04:48:00,SystemResetWarning,0823.1,5.00,000.00,020.1,019.3,000.0,028.7,021.9,24.8,0000.0,0001.66,0002.29,0001.33
2024-03-14 04:49:00,SystemResetWarning,0823.2,5.00,000.00,020.1,019.2,000.0,028.7,021.9,24.8,0000.0,0001.61,0002.27,0001.26
2024-03-14 04:50:00,SystemResetWarning,0823.1,5.00,000.00,020.1,019.2,000.0,028.7,021.9,24.8,0000.0,0001.52,0002.15,0001.20
2024-03-14 04:51:00,SystemResetWarning,0823.2,5.00,000.00,020.0,019.2,000.0,028.7,021.8,24.8,0000.0,0001.45,0002.08,0001.14
2024-03-14 04:52:00,SystemResetWarning,0823.2,5.00,000.00,020.0,019.2,000.0,028.7,021.8,24.8,0000.0,0001.36,0001.99,0001.09
2024-03-14 04:53:00,SystemResetWarning,0823.2,5.00,000.00,020.0,019.2,000.0,028.7,021.8,24.8,0000.0,0001.27,0001.88,0001.03
2024-03-14 04:54:00,SystemResetWarning,0823.3,5.00,000.00,020.0,019.2,000.0,028.7,021.8,24.8,0000.0,0001.19,0001.75,0000.97
2024-03-14 04:55:00,SystemResetWarning,0823.3,4.99,000.00,020.0,019.2,000.0,028.7,021.8,24.8,0000.0,0001.12,0001.64,0000.92
2024-03-14 04:56:00,SystemResetWarning,0823.3,4.99,000.00,020.0,019.2,000.0,028.6,021.8,24.8,0000.0,0001.05,0001.53,0000.88
2024-03-14 04:57:00,SystemResetWarning,0823.3,5.00,000.00,020.0,019.2,000.0,028.6,021.8,24.8,0000.0,0000.99,0001.42,0000.84
2024-03-14 04:58:00,SystemResetWarning,0823.4,5.01,000.00,020.0,019.1,000.0,028.6,021.8,24.8,0000.0,0000.93,0001.34,0000.79
2024-03-14 04:59:00,SystemResetWarning,0823.4,5.01,000.00,020.0,019.1,000.0,028.6,021.7,24.9,0000.0,0000.86,0001.23,0000.74
